Preview of NWS' New Version of Forecast
This preview is not operational and should not be used for support decisions.

Regional Weather Roundup (RWR)

Issued by National Weather Service (NWS)

                            
000
ASUS43 KDMX 172206
RWRIA 

WEATHER ROUNDUP FOR IOWA
NATIONAL WEATHER SERVICE DES MOINES IA
500 PM CDT TUE SEP 17 2019

NOTE: "FAIR" INDICATES FEW OR NO CLOUDS BELOW 12,000 FEET WITH NO
SIGNIFICANT WEATHER AND/OR OBSTRUCTIONS TO VISIBILITY.

* - THESE STATIONS ARE NOT NWS STATIONS...THUS NOT UNDER NWS
QUALITY CONTROL.  THEY ALSO DO NOT REPORT WEATHER SUCH 
AS PRECIPITATION OR FOG.  

IAZ001>003-012>014-020>022-031>034-043>046-172300-
   NORTHWEST IOWA
  
CITY           SKY/WX    TMP DP  RH WIND       PRES   REMARKS
CARROLL *      SUNNY     88  68  51 S12G21    29.92F HX  91           
CHEROKEE *     SUNNY     86  67  51 S18G24    29.88F HX  89           
DENISON *      SUNNY     88  70  55 S16G29    29.91F HX  92           
LE MARS *      SUNNY     88  70  55 S22G29    29.83F HX  92           
SHELDON *      SUNNY     86  70  58 S16G26    29.84F HX  90           
SIOUX CITY     SUNNY     87  68  52 S17G30    29.83F HX  90           
SPENCER        SUNNY     89  67  47 S17G31    29.88F HX  92           
STORM LAKE *   SUNNY     86  66  51 S18G28    29.87F HX  88           
$$
 
IAZ055>058-069>071-079>083-090>094-172300-
   SOUTHWEST IOWA
  
CITY           SKY/WX    TMP DP  RH WIND       PRES   REMARKS
ATLANTIC *     SUNNY     88  68  51 S16G23    29.92F HX  91           
AUDUBON *        N/A     88  70  55 S16       29.95F HX  92           
CLARINDA *     MOSUNNY   90  72  55 S12G18    29.95F HX  96           
COUNCIL BLFS * SUNNY     90  64  43 S21G30    29.89F HX  91           
CRESTON *      MOSUNNY   88  70  55 S12G20    29.97S HX  92           
HARLAN  *      SUNNY     90  68  48 S17G26    29.91F HX  93           
LAMONI         SUNNY     88  68  51 S8        29.98F HX  91           
RED OAK *      SUNNY     90  68  48 S20       29.92F HAZE    HX  93   
SHENANDOAH *   SUNNY     90  66  45 S14G25    29.91F HX  92           
$$
 
IAZ047>049-059>061-072>074-084-172300-
   CENTRAL IOWA
  
CITY           SKY/WX    TMP DP  RH WIND       PRES   REMARKS
AMES           SUNNY     88  69  53 S14       29.96F HX  92           
ANKENY *       SUNNY     88  72  58 SE10      29.97F HX  94           
BOONE *        SUNNY     90  64  43 S14G22    29.95F HX  91           
CHARITON *     MOSUNNY   88  72  58 S8        29.98F HX  94           
DES MOINES     PTSUNNY   88  69  53 S10       29.95F HX  92           
GRINNELL*      SUNNY     85  71  64 SE14G20   30.02F HX  90           
KNOXVILLE *    SUNNY     86  75  70 SE10G17   29.98F HX  95           
MARSHALLTOWN   MOSUNNY   83  73  72 SE15      29.98F HX  89           
NEWTON *       SUNNY     86  72  62 SE13G18   29.98S HX  92           
PELLA *        SUNNY     88  71  57 SE10      30.00F HX  94           
PERRY *        FAIR      90  64  42 S13       29.94F HX  91           
$$
 
IAZ004>006-015-016-023>025-035-036-172300-
   NORTH CENTRAL IOWA
  
CITY           SKY/WX    TMP DP  RH WIND       PRES   REMARKS
ALGONA *       SUNNY     86  72  62 S17G23    29.91F HX  92           
CLARION *      SUNNY     88  70  55 S16G25    29.95F HX  92           
ESTHERVILLE    SUNNY     85  67  54 S22G32    29.89F HX  87           
FORT DODGE *   MOSUNNY   87  71  58 S14G20    29.94F HX  93           
MASON CITY     SUNNY     86  68  54 S20G28    29.97F HX  89           
FOREST CITY *  FAIR      86  70  58 S20       29.95F HX  90           
IOWA FALLS *     N/A     86  67  51 SE15      29.99F HX  89           
$$

IAZ007>011-017>019-026>030-037>042-050>054-066-172300-
   NORTHEAST IOWA
  
CITY           SKY/WX    TMP DP  RH WIND       PRES   REMARKS
CEDAR RAPIDS   FAIR      80  68  66 SE13      30.03F HX  83           
CHARLES CITY * FAIR      82  70  65 SE16G23   30.00S HX  86           
CLINTON *      FAIR      78  70  76 SE12      30.08F HX  80           
DECORAH *      FAIR      79  68  69 S10G17    30.03S HX  81           
DUBUQUE        FAIR      74  67  78 SE9       30.08F                  
MONTICELLO *   FAIR      79  72  78 VRB7      30.06F HX  82           
OELWEIN *      SUNNY     79  70  73 SE14G22   30.04F HX  81           
WATERLOO       FAIR      84  69  60 SE13      30.00S HX  88           
$$
 
IAZ064-065-067-068-078-172300-
   EAST CENTRAL IOWA
  
CITY           SKY/WX    TMP DP  RH WIND       PRES   REMARKS
DAVENPORT      FAIR      80  68  66 E10       30.08F HX  83           
IOWA CITY      FAIR      82  64  54 SE12      30.05F HX  83           
MUSCATINE *    FAIR      82  68  61 S10       30.05S HX  85           
QUAD CITIES    FAIR      82  66  58 SE9       30.06S HX  84           
$$
 
IAZ062-063-075>077-085>089-095>099-172300-
   SOUTHEAST IOWA
  
CITY           SKY/WX    TMP DP  RH WIND       PRES   REMARKS
BURLINGTON     SUNNY     83  67  58 SE8       30.05F HX  85           
FAIRFIELD *    SUNNY     84  73  70 SE13      30.02F HX  91           
FORT MADISON * SUNNY     82  72  69 E7        30.05F HX  87           
KEOKUK *       SUNNY     82  70  65 E13       30.04S HX  86           
CENTERVILLE *  FAIR      86  73  66 SE9       30.01F HX  93           
OTTUMWA        SUNNY     85  71  63 SE13      30.00F HX  90           
WASHINGTON *     N/A    N/A N/A N/A MISG        N/A                   
$$

ABBREVIATIONS USED IN REMARKS
   TC - TEMPERATURES IN CELSIUS
  WCI - WIND CHILL INDEX
   HX - HEAT INDEX
  VSB - VISIBILITY  
$$